Location: Doschendorf
(50.0069°N, 11.0602°E)
Time: 08:22:30
(UTC+00:00)

NOAA 12 - Pass Details

Date: 01 March 2020
Orbit: 795 x 815 km, 98.5° (Epoch: 04 April)

Event Time Altitude Azimuth Distance (km) Brightness Sun altitude
Rises 17:56:51 0° 198° (SSW) 3,318 7.5 -10.2°
Reaches altitude 10° 17:59:33 10° 211° (SSW) 2,395 7.0 -10.6°
Maximum altitude 18:03:57 26° 267° (W) 1,550 6.6 -11.3°
Drops below altitude 10° 18:08:24 10° 324° (NW) 2,416 7.1 -12.0°
Sets 18:11:09 0° 337° (NNW) 3,355 7.7 -12.4°
